Temperature
16 15 15 15 14 14 14 14 13 13 13 12 12 12 12 11 11 10 11 11 11 11 10 10 10 10 10 9 9 9 9 9 9 9 9 9 9 9 9 9 9 9 9
16 16 15 15 14 14 14 14 13 13 13 12 12 12 12 11 11 10 10 11 11 11 10 10 10 10 10 9 9 9 9 9 9 9 9 8 8 8 8 8 8 8 8
16 15 15 15 14 14 14 13 13 13 13 13 12 12 11 11 11 11 10 10 10 11 10 10 10 10 10 9 9 9 9 9 8 8 8 8 8 7 7 7 7 7 6
15 15 15 15 14 14 14 13 13 13 13 12 12 12 12 12 11 11 11 11 10 10 10 10 10 10 9 9 9 8 8 8 8 8 8 7 7 6 6 6 5 5 5
15 15 14 14 14 14 13 13 13 12 12 12 12 12 11 11 11 11 11 11 11 10 10 10 10 9 9 9 8 8 8 8 8 7 7 7 6 6 5 5 4 4 4
15 14 14 14 14 13 13 13 12 12 12 12 12 11 11 11 11 11 11 11 11 10 10 10 9 9 9 8 8 8 7 7 7 7 7 6 6 5 5 4 4 4 4
15 14 14 14 13 13 13 13 12 12 12 12 11 11 11 11 11 11 11 10 10 10 10 9 9 9 8 8 8 7 7 7 7 6 6 6 5 4 4 3 3 3 3
15 15 14 14 14 13 13 12 12 12 12 12 11 10 10 10 11 11 11 11 10 10 10 9 9 8 8 7 7 7 7 6 6 6 5 5 4 4 3 3 3 3 3
16 16 15 14 14 13 13 13 13 12 12 12 11 10 10 11 11 11 11 11 10 10 9 9 9 8 8 7 7 6 6 6 6 5 5 4 3 3 2 2 2 2 2
16 16 15 14 14 13 13 13 13 12 12 11 11 11 11 11 11 11 11 11 10 10 9 9 8 8 7 6 6 6 6 5 5 5 4 3 3 2 2 1 1 1 1
16 15 15 14 13 13 13 13 13 12 12 11 11 11 10 10 10 10 10 10 10 9 8 8 7 7 6 6 5 5 5 5 4 4 4 3 2 1 1 1 1 1 1
15 15 15 14 13 13 13 12 12 12 12 11 11 11 11 10 10 10 9 9 9 9 8 7 7 6 6 5 4 4 4 4 3 3 3 3 2 1 1 0 0 0 -0
14 14 14 13 13 12 12 12 11 11 11 11 10 10 10 10 9 9 8 8 8 8 7 6 6 5 5 4 3 3 3 3 3 2 2 2 1 1 1 1 0 -1 -1
13 13 13 13 12 11 11 11 11 11 11 10 10 10 9 9 8 8 7 7 6 6 5 5 5 4 4 3 2 2 2 2 2 1 1 1 1 1 0 -0 -1 -1 -1
12 12 12 12 11 11 11 10 10 10 10 10 9 9 8 8 7 7 6 6 5 4 4 4 4 3 2 2 1 1 1 0 0 0 0 0 -0 -0 -1 -1 -2 -2 -2
11 11 11 10 10 10 10 10 10 9 9 9 9 8 7 7 6 6 5 4 4 3 2 2 2 2 1 1 0 0 -0 -0 -0 -0 -0 -1 -1 -2 -2 -2 -3 -3 -3
10 10 10 10 9 9 9 9 9 9 8 8 8 7 6 5 5 4 4 3 3 2 2 1 1 1 0 0 -0 -1 -1 -1 -1 -1 -1 -2 -2 -2 -2 -3 -3 -4 -4
9 9 9 9 8 8 8 8 8 8 7 7 6 5 5 4 4 3 3 2 2 1 1 0 -0 -0 -1 -1 -1 -1 -1 -1 -1 -2 -2 -2 -2 -3 -3 -3 -4 -4 -4
8 7 8 7 7 7 7 7 7 6 6 5 5 4 3 3 3 2 2 1 0 0 -0 -1 -1 -2 -2 -2 -2 -2 -2 -2 -2 -2 -2 -2 -3 -3 -3 -3 -4 -4 -4
6 6 6 6 6 6 6 6 5 5 4 4 3 3 2 2 1 1 1 0 -0 -1 -2 -2 -3 -3 -3 -3 -4 -4 -4 -4 -3 -3 -3 -3 -3 -3 -3 -3 -3 -4 -4
5 5 5 5 4 4 4 4 4 3 3 2 2 1 1 1 0 -0 -0 -1 -1 -2 -3 -4 -4 -4 -4 -5 -5 -5 -5 -5 -4 -4 -4 -4 -4 -4 -4 -4 -4 -4 -4
4 4 4 3 3 3 2 2 2 1 1 1 1 0 0 -0 -1 -1 -1 -2 -2 -3 -4 -4 -5 -5 -5 -6 -6 -6 -7 -7 -6 -5 -6 -5 -5 -4 -4 -4 -4 -4 -4
3 2 2 2 2 1 1 0 0 0 0 -0 -0 -0 -1 -1 -1 -2 -2 -3 -3 -4 -4 -5 -5 -5 -6 -6 -6 -7 -7 -7 -7 -6 -6 -6 -5 -5 -5 -5 -4 -4 -4
1 1 1 1 0 -0 -0 -0 -1 -1 -1 -1 -1 -1 -2 -2 -2 -3 -3 -3 -4 -4 -5 -5 -6 -6 -6 -6 -7 -7 -7 -7 -6 -6 -7 -7 -6 -6 -6 -5 -4 -4 -4
0 0 -0 -1 -1 -1 -1 -1 -1 -1 -2 -2 -2 -2 -2 -3 -3 -4 -4 -4 -5 -5 -5 -5 -5 -6 -6 -6 -6 -7 -7 -7 -7 -6 -6 -7 -7 -7 -6 -5 -4 -4 -4
-0 -1 -1 -1 -1 -1 -1 -2 -2 -2 -2 -2 -3 -3 -3 -3 -4 -5 -5 -6 -6 -6 -6 -5 -5 -6 -6 -6 -6 -6 -7 -7 -7 -8 -7 -8 -8 -8 -8 -6 -5 -5 -5
Wind_Speed
9 9 9 9 9 8 8 7 7 7 7 6 6 6 6 6 6 6 7 9 9 8 8 7 6 6 6 6 6 6 6 6 6 6 6 7 7 7 8 8 9 9 10
10 10 9 9 9 9 9 8 8 7 6 6 6 7 7 6 6 6 7 9 9 9 8 7 6 5 5 5 4 4 4 5 5 5 6 6 6 7 7 8 8 9 10
13 11 9 9 10 10 10 9 8 7 6 6 7 7 7 7 7 7 7 7 9 9 8 8 7 5 4 3 3 3 3 4 4 5 6 6 7 7 8 8 9 10 11
16 13 10 10 12 11 10 8 8 7 7 7 7 6 6 6 8 8 8 8 8 8 9 8 7 6 4 3 2 2 3 3 4 5 6 7 8 9 9 10 11 11 12
18 16 12 12 13 11 10 9 9 8 8 7 6 6 6 6 7 8 9 9 9 9 8 9 8 6 4 2 1 2 3 4 5 6 7 8 9 10 11 12 13 13 14
19 18 13 14 14 11 11 11 11 9 8 7 6 6 6 6 7 8 9 10 9 10 10 9 9 7 5 3 1 1 3 5 6 7 8 9 11 12 13 14 15 16 16
19 18 13 14 14 13 14 14 12 11 9 8 6 5 6 7 8 7 9 9 10 11 11 10 9 7 6 5 2 1 3 5 6 8 9 11 12 13 15 16 17 17 18
20 18 17 15 15 14 16 16 14 10 8 9 8 5 5 7 8 9 8 8 10 10 11 11 10 8 7 5 3 2 2 4 7 9 11 12 14 15 16 18 19 20 20
21 20 19 17 16 16 15 17 17 16 12 11 10 8 6 8 5 6 9 9 9 8 9 10 10 9 8 6 5 4 1 4 7 10 12 14 15 17 18 20 21 21 22
19 20 19 18 17 15 16 17 17 15 14 11 9 9 6 3 5 5 5 8 9 9 9 8 9 9 8 7 5 3 2 4 8 11 13 15 17 19 20 21 21 22 22
16 17 18 16 16 15 17 16 16 17 14 13 10 7 7 4 4 5 4 5 6 6 6 7 7 8 8 7 7 5 3 6 9 12 15 17 19 20 21 22 22 23 23
12 15 16 16 16 14 15 15 15 17 14 13 10 8 6 5 6 6 5 3 4 4 4 4 5 6 7 8 7 5 5 7 11 14 17 19 20 21 22 23 23 23 24
11 13 13 14 13 13 12 12 12 13 13 12 10 8 6 5 3 4 4 3 2 2 3 4 4 6 7 7 7 6 7 10 13 16 19 20 21 22 22 23 24 24 24
11 11 12 11 11 10 10 9 8 9 8 9 9 7 5 3 3 3 3 4 3 2 2 4 3 5 6 7 6 6 10 12 14 17 20 21 22 22 23 23 24 24 25
7 9 9 9 9 9 9 9 7 8 8 7 7 7 6 5 4 4 3 3 4 4 4 4 3 3 5 6 6 9 12 13 16 19 21 21 22 22 23 24 24 25 25
7 7 7 8 8 8 8 8 8 8 9 8 7 9 7 6 5 5 4 4 3 2 2 1 2 3 4 7 9 11 13 16 18 19 20 20 21 22 23 24 24 24 25
5 6 7 7 7 8 9 9 9 11 11 10 9 10 9 8 7 5 4 4 3 2 3 2 2 3 6 8 9 11 12 14 15 17 19 21 22 22 23 23 24 24 24
3 4 6 7 8 8 9 10 11 11 11 11 10 10 10 7 7 6 4 3 2 3 3 4 4 5 7 8 9 10 11 13 14 17 20 21 22 23 23 23 23 24 25
5 6 7 8 8 9 9 10 11 11 10 10 10 10 9 8 7 5 4 3 2 3 3 4 5 6 7 7 9 10 11 11 13 15 18 19 20 21 22 23 25 25 26
8 9 9 9 9 9 10 10 11 11 11 10 9 9 8 7 6 5 4 3 3 3 4 5 6 7 7 8 8 8 9 9 10 13 16 17 18 20 22 24 25 25 25
10 10 11 11 10 9 9 11 11 11 11 10 9 8 7 6 5 3 2 3 3 4 4 5 6 7 7 7 7 8 10 11 12 11 10 10 12 14 17 20 22 22 24
11 11 11 11 11 9 14 15 12 10 10 9 8 7 6 5 3 3 3 4 5 5 5 6 7 8 9 9 8 8 10 11 10 7 10 13 13 14 14 16 20 24 26
11 12 11 12 12 14 16 16 14 10 9 7 6 5 3 3 2 2 3 5 6 7 8 8 10 10 10 10 10 12 11 12 13 13 14 15 14 14 13 17 23 26 27
10 10 11 12 12 13 15 15 14 9 7 6 4 3 2 2 2 3 4 5 6 7 8 8 9 10 10 11 11 12 13 13 14 13 12 13 13 14 13 15 22 26 27
10 10 10 10 11 11 13 13 10 6 5 4 3 2 1 1 2 6 6 6 8 7 7 10 13 15 17 18 15 10 10 10 12 11 10 8 10 13 14 14 16 21 22
9 9 9 8 9 9 11 10 7 4 3 2 1 1 1 3 4 6 6 7 8 8 8 9 10 12 12 12 12 10 8 9 9 8 6 6 10 10 8 9 10 12 16
Wind_Direction
192 189 193 191 195 192 190 194 196 188 190 188 189 186 184 183 175 167 144 137 138 140 138 132 124 114 102 91 83 71 60 51 40 30 23 20 15 9 6 5 1 357 353
198 194 196 197 198 198 198 198 198 193 195 194 191 190 190 184 185 182 166 148 142 149 152 147 138 126 112 98 86 72 54 41 27 15 5 360 356 352 348 347 346 343 340
204 201 202 200 201 201 199 201 198 199 196 193 196 196 195 194 189 188 185 177 164 156 160 158 149 140 126 106 84 66 47 25 7 356 347 341 336 332 329 329 328 327 326
209 207 208 206 203 199 200 199 199 199 197 199 197 194 196 195 201 195 192 190 184 175 168 164 159 152 140 120 80 39 22 3 347 338 332 326 322 319 317 315 314 314 315
212 211 213 210 203 202 203 202 204 205 203 202 199 196 201 200 201 202 203 197 193 190 182 162 159 154 153 142 81 1 350 337 326 321 319 316 313 311 308 307 307 306 306
215 215 216 214 206 204 205 204 203 205 208 197 191 198 207 207 209 206 206 202 197 196 197 186 181 169 161 161 164 334 331 324 317 313 311 310 308 307 305 304 303 302 302
217 216 217 215 210 210 209 206 201 201 201 187 184 200 212 219 219 211 210 207 202 201 202 201 202 197 188 177 181 279 314 316 313 309 307 306 304 303 302 301 300 300 299
220 217 217 216 213 214 213 209 201 202 197 190 196 200 214 214 220 217 212 213 208 200 205 206 205 205 207 208 178 197 296 313 312 309 307 306 304 303 302 300 299 298 297
222 219 220 220 216 214 215 210 205 203 202 199 206 205 211 223 192 197 213 212 210 205 206 205 207 205 207 210 208 195 242 309 310 308 306 305 304 302 300 298 297 296 296
225 223 221 221 219 216 218 214 210 210 207 201 207 225 238 253 194 186 199 212 214 215 211 204 206 206 208 209 205 201 235 298 304 306 306 305 303 301 299 298 297 297 296
228 226 223 221 221 219 219 216 211 212 211 208 199 198 212 228 236 217 197 187 205 216 215 211 208 208 205 207 205 204 247 290 301 304 304 303 302 300 299 298 297 297 296
231 227 225 223 223 221 220 218 212 212 212 212 203 195 188 191 206 210 210 184 190 184 204 215 215 211 206 207 209 206 253 285 299 302 302 301 300 300 299 298 297 296 294
236 229 224 225 224 221 218 214 210 209 208 206 203 202 201 195 167 184 189 166 161 146 194 214 216 211 205 207 211 218 261 283 294 298 299 299 299 299 298 296 294 293 292
243 235 225 223 220 214 207 201 198 197 194 195 194 182 167 158 142 146 154 147 143 169 211 211 195 208 212 217 227 247 272 280 288 293 295 296 296 296 294 293 292 291 290
243 231 220 213 207 199 192 182 183 179 169 171 161 147 137 124 112 99 105 130 151 183 211 194 199 202 216 233 247 267 278 282 287 289 291 292 293 292 291 290 289 289 288
233 218 211 200 191 184 174 165 158 154 146 142 138 134 128 123 111 103 104 92 90 148 196 184 216 218 233 256 267 276 281 285 283 284 287 290 290 290 289 288 287 286 286
218 206 194 181 173 164 157 152 148 145 141 135 134 134 130 127 121 113 110 112 118 152 209 243 238 252 265 271 277 279 282 284 283 284 287 290 290 289 288 287 286 286 285
179 170 157 147 143 145 145 143 140 140 138 137 136 132 131 129 123 123 125 136 154 185 215 249 257 255 263 275 281 284 286 284 283 286 289 290 289 289 288 287 286 285 285
108 115 120 124 127 130 131 130 130 131 131 131 133 132 131 131 128 130 138 153 176 202 224 249 265 267 270 274 283 284 285 285 285 287 289 289 289 289 288 288 287 287 286
94 98 101 103 109 114 116 119 118 117 116 114 114 116 122 130 135 145 158 176 194 222 238 252 264 271 273 279 283 291 296 296 295 295 290 288 288 289 287 286 286 285 285
89 94 97 98 98 100 107 111 111 112 111 109 106 107 113 121 134 155 180 197 217 238 249 259 269 277 281 289 293 299 297 301 299 293 292 293 294 291 290 287 285 283 283
88 91 94 96 95 98 108 109 109 108 111 113 112 110 114 122 143 189 228 240 244 252 261 270 276 280 286 292 297 297 297 300 302 299 302 298 296 291 289 287 286 287 287
89 91 93 96 98 105 109 108 107 106 107 109 113 119 126 139 174 232 242 252 256 262 267 275 276 279 289 295 297 293 290 289 286 290 297 292 292 289 289 287 288 288 288
89 90 92 94 97 103 106 106 105 100 101 104 107 115 133 170 214 249 262 268 273 271 271 270 273 280 284 287 285 283 285 286 284 283 282 285 290 290 293 291 289 287 287
91 90 90 93 98 103 105 105 103 102 104 105 106 124 180 235 256 273 280 282 287 285 275 273 278 281 284 285 286 286 283 284 289 291 288 280 290 298 295 288 285 284 285
94 94 89 90 99 105 107 108 105 102 108 107 123 175 246 294 297 296 292 288 289 298 301 295 288 285 284 283 278 267 269 274 282 290 285 281 292 306 299 282 284 289 290
Height
1546 1547 1549 1550 1551 1552 1553 1554 1555 1556 1557 1557 1558 1558 1558 1559 1559 1559 1558 1557 1557 1556 1556 1556 1555 1554 1554 1553 1553 1552 1551 1550 1550 1549 1548 1547 1546 1545 1544 1544 1543 1542 1541
1544 1545 1546 1547 1549 1550 1551 1552 1553 1554 1555 1555 1556 1556 1556 1556 1556 1557 1557 1555 1555 1555 1555 1554 1554 1553 1553 1552 1551 1551 1550 1549 1548 1547 1546 1545 1544 1543 1542 1541 1541 1540 1539
1541 1542 1543 1544 1546 1547 1548 1549 1550 1551 1552 1552 1553 1553 1554 1554 1554 1554 1554 1554 1553 1553 1553 1552 1552 1552 1551 1551 1550 1549 1548 1547 1546 1545 1544 1543 1542 1541 1540 1539 1538 1537 1536
1537 1538 1539 1541 1543 1544 1545 1546 1547 1548 1549 1549 1550 1550 1551 1551 1552 1552 1551 1551 1551 1551 1550 1550 1550 1550 1549 1549 1548 1547 1546 1545 1544 1543 1542 1541 1540 1539 1538 1537 1536 1535 1534
1533 1534 1535 1537 1538 1540 1541 1542 1543 1545 1546 1546 1547 1547 1548 1548 1548 1548 1548 1548 1548 1548 1548 1547 1547 1547 1547 1546 1546 1545 1544 1543 1542 1541 1539 1538 1537 1536 1535 1534 1533 1532 1531
1528 1529 1530 1532 1533 1535 1536 1537 1539 1540 1542 1542 1543 1544 1544 1544 1544 1544 1545 1544 1544 1544 1544 1544 1544 1544 1544 1543 1543 1542 1541 1540 1539 1537 1536 1535 1534 1533 1532 1531 1529 1528 1527
1523 1524 1525 1527 1528 1529 1530 1532 1534 1535 1536 1538 1539 1539 1539 1540 1540 1540 1540 1540 1540 1540 1540 1540 1540 1540 1540 1539 1539 1538 1537 1536 1535 1534 1532 1531 1530 1529 1528 1527 1525 1524 1523
1516 1518 1519 1520 1521 1523 1524 1526 1527 1529 1530 1532 1534 1535 1536 1536 1533 1534 1534 1535 1535 1535 1535 1536 1536 1536 1535 1535 1534 1534 1533 1532 1531 1529 1528 1527 1525 1524 1523 1521 1520 1519 1518
1509 1510 1512 1514 1515 1516 1517 1519 1520 1522 1524 1525 1527 1530 1530 1529 1528 1528 1528 1529 1529 1529 1530 1530 1531 1531 1531 1530 1529 1528 1528 1527 1526 1524 1523 1522 1520 1518 1517 1516 1514 1513 1512
1502 1503 1505 1506 1507 1509 1510 1512 1513 1515 1517 1518 1520 1521 1523 1523 1523 1522 1522 1523 1523 1524 1524 1525 1525 1525 1525 1525 1524 1523 1522 1521 1520 1519 1517 1515 1514 1512 1511 1509 1508 1506 1505
1495 1496 1497 1498 1500 1501 1503 1504 1506 1508 1509 1511 1511 1513 1514 1516 1516 1518 1517 1517 1517 1518 1518 1519 1519 1520 1520 1519 1518 1517 1516 1515 1514 1512 1511 1509 1507 1505 1503 1502 1500 1498 1497
1487 1488 1489 1490 1492 1493 1495 1496 1498 1500 1501 1503 1504 1506 1507 1508 1508 1510 1511 1511 1511 1512 1513 1513 1513 1514 1514 1513 1512 1511 1510 1509 1507 1506 1504 1502 1499 1497 1495 1493 1491 1489 1488
1478 1480 1481 1482 1483 1485 1487 1489 1490 1492 1494 1495 1497 1498 1500 1501 1502 1503 1504 1504 1505 1505 1507 1507 1507 1508 1508 1507 1506 1505 1504 1502 1501 1499 1496 1494 1492 1489 1487 1484 1482 1480 1479
1471 1472 1473 1474 1476 1477 1479 1481 1483 1484 1486 1488 1489 1491 1492 1493 1494 1496 1498 1499 1499 1500 1501 1501 1501 1501 1501 1501 1499 1498 1496 1495 1493 1491 1488 1486 1483 1481 1478 1475 1473 1471 1470
1464 1465 1466 1467 1468 1470 1471 1473 1475 1477 1479 1480 1482 1484 1485 1486 1488 1489 1491 1493 1495 1494 1495 1495 1496 1495 1495 1495 1493 1491 1489 1487 1485 1483 1480 1477 1475 1472 1469 1467 1465 1463 1461
1456 1457 1458 1459 1461 1462 1464 1466 1468 1470 1472 1473 1475 1477 1478 1480 1481 1483 1485 1486 1488 1490 1490 1490 1491 1491 1490 1489 1487 1485 1482 1480 1478 1475 1472 1469 1466 1464 1461 1459 1456 1454 1453
1449 1450 1452 1453 1454 1456 1457 1459 1461 1463 1465 1467 1469 1471 1473 1474 1476 1478 1481 1482 1483 1485 1485 1485 1485 1485 1485 1483 1481 1478 1476 1473 1471 1468 1465 1462 1459 1456 1453 1451 1449 1446 1445
1444 1445 1446 1447 1449 1451 1452 1454 1456 1458 1460 1462 1464 1466 1469 1471 1473 1475 1477 1478 1479 1480 1480 1480 1480 1480 1479 1477 1475 1472 1469 1467 1464 1461 1458 1455 1452 1449 1446 1444 1441 1439 1437
1440 1441 1442 1444 1445 1447 1448 1450 1452 1455 1457 1459 1462 1464 1466 1469 1470 1472 1473 1475 1475 1476 1475 1475 1474 1474 1473 1471 1468 1465 1462 1460 1457 1454 1451 1448 1445 1442 1439 1437 1434 1431 1428
1438 1439 1440 1441 1443 1445 1446 1448 1450 1453 1455 1457 1460 1462 1465 1467 1468 1470 1471 1471 1472 1472 1471 1470 1469 1469 1467 1465 1462 1459 1456 1454 1451 1448 1444 1441 1438 1435 1432 1429 1426 1423 1420
1438 1439 1440 1441 1442 1444 1446 1448 1449 1452 1454 1457 1459 1461 1463 1465 1466 1467 1468 1468 1467 1467 1467 1466 1465 1464 1462 1460 1458 1455 1452 1448 1445 1442 1438 1435 1432 1428 1425 1422 1418 1415 1412
1439 1440 1441 1442 1443 1445 1447 1449 1451 1453 1455 1457 1458 1460 1462 1463 1464 1464 1465 1464 1464 1463 1462 1461 1460 1459 1457 1455 1453 1450 1447 1443 1439 1437 1433 1429 1426 1421 1418 1414 1411 1407 1404
1441 1442 1443 1444 1445 1447 1449 1451 1453 1455 1456 1458 1459 1460 1460 1461 1461 1461 1461 1460 1460 1459 1458 1457 1455 1454 1452 1450 1448 1445 1442 1439 1434 1431 1427 1420 1419 1414 1411 1407 1403 1400 1396
1444 1444 1445 1447 1448 1450 1451 1453 1455 1456 1457 1458 1458 1459 1459 1459 1458 1458 1458 1457 1456 1455 1453 1452 1451 1449 1447 1445 1443 1440 1437 1433 1428 1426 1422 1416 1411 1407 1403 1399 1395 1392 1388
1447 1447 1448 1450 1451 1452 1454 1455 1456 1457 1457 1457 1457 1457 1457 1457 1456 1455 1455 1453 1452 1451 1449 1447 1446 1444 1442 1440 1438 1435 1432 1428 1422 1419 1417 1411 1405 1400 1394 1389 1386 1382 1378
1450 1451 1451 1453 1454 1455 1456 1456 1457 1457 1457 1457 1456 1456 1455 1454 1453 1452 1451 1450 1449 1447 1445 1444 1442 1440 1438 1436 1433 1430 1427 1423 1418 1412 1409 1405 1399 1394 1384 1379 1377 1373 1369